YSS694U LPPT-LPMA

Flight info

Callsign YSS694U
Flight time 1h 20m
Altitude 37000
Route ULVOT DCT GALPA DCT RAKUN
Aircraft L101/H-SDFHIW/S

Departure

Time 2026-05-07 12:43
Airport Lisbon Humberto Delgado Airport (LPPT)

Arrival

Time 2026-05-07 14:03
Airport Cristiano Ronaldo International Airport (LPMA)
Time Latitude Longitude Altitude Speed Heading
2026-05-07 12:19 38.76717 -9.13964 357 ft 0 kts 78°
2026-05-07 12:32 38.76716 -9.13975 358 ft 2 kts 80°
2026-05-07 12:32 38.76713 -9.14001 357 ft 2 kts 88°
2026-05-07 12:32 38.76713 -9.14026 357 ft 3 kts 101°
2026-05-07 12:32 38.76719 -9.14050 357 ft 3 kts 130°
2026-05-07 12:33 38.76731 -9.14061 355 ft 0 kts 168°
2026-05-07 12:36 38.76724 -9.14059 355 ft 4 kts 168°
2026-05-07 12:36 38.76693 -9.14051 356 ft 7 kts 169°
2026-05-07 12:36 38.76628 -9.14065 358 ft 12 kts 204°
2026-05-07 12:36 38.76540 -9.14115 354 ft 15 kts 203°
2026-05-07 12:37 38.76508 -9.14210 350 ft 13 kts 290°
2026-05-07 12:37 38.76523 -9.14260 346 ft 0 kts 292°
2026-05-07 12:37 38.76523 -9.14261 346 ft 0 kts 292°
2026-05-07 12:41 38.76537 -9.14304 348 ft 9 kts 292°
2026-05-07 12:42 38.76579 -9.14394 335 ft 13 kts 326°
2026-05-07 12:42 38.76659 -9.14380 351 ft 8 kts 23°
2026-05-07 12:42 38.76666 -9.14376 351 ft 0 kts 22°
2026-05-07 12:42 38.76706 -9.14354 349 ft 32 kts 23°
2026-05-07 12:43 38.77223 -9.14080 365 ft 125 kts 21°
2026-05-07 12:43 38.78191 -9.13532 919 ft 159 kts 21°
2026-05-07 12:43 38.79192 -9.12886 2013 ft 166 kts 23°
2026-05-07 12:43 38.80265 -9.12124 2645 ft 188 kts 28°
2026-05-07 12:44 38.81125 -9.10654 2908 ft 234 kts 69°
2026-05-07 12:44 38.81230 -9.08449 3306 ft 264 kts 101°
2026-05-07 12:44 38.80571 -9.06241 4208 ft 253 kts 122°
2026-05-07 12:44 38.79476 -9.04528 4678 ft 264 kts 142°
2026-05-07 12:45 38.77765 -9.03438 5638 ft 290 kts 172°
2026-05-07 12:45 38.75722 -9.03798 6706 ft 313 kts 205°
2026-05-07 12:45 38.73943 -9.05413 8169 ft 308 kts 222°
2026-05-07 12:45 38.72539 -9.07337 10058 ft 286 kts 229°
2026-05-07 12:46 38.71290 -9.09261 11679 ft 278 kts 230°
2026-05-07 12:46 38.70040 -9.11207 13016 ft 289 kts 231°
2026-05-07 12:46 38.68733 -9.13225 13809 ft 300 kts 231°
2026-05-07 12:46 38.67382 -9.15296 14057 ft 305 kts 231°
2026-05-07 12:47 38.65983 -9.17429 14291 ft 326 kts 231°
2026-05-07 12:47 38.64472 -9.19732 14672 ft 350 kts 231°
2026-05-07 12:47 38.62842 -9.22215 14743 ft 380 kts 231°
2026-05-07 12:47 38.61078 -9.24908 14797 ft 409 kts 231°
2026-05-07 12:48 38.59191 -9.27781 14911 ft 434 kts 231°
2026-05-07 12:48 38.57217 -9.30778 15475 ft 445 kts 231°
2026-05-07 12:48 38.55218 -9.33804 16546 ft 444 kts 231°
2026-05-07 12:48 38.53244 -9.36777 18084 ft 432 kts 231°
2026-05-07 12:49 38.51323 -9.39661 19480 ft 423 kts 231°
2026-05-07 12:49 38.49411 -9.42528 20431 ft 427 kts 232°
2026-05-07 12:49 38.47454 -9.45469 20844 ft 444 kts 232°
2026-05-07 12:49 38.45420 -9.48536 21154 ft 461 kts 231°
2026-05-07 12:50 38.43334 -9.51680 21951 ft 466 kts 231°
2026-05-07 12:50 38.41239 -9.54827 23153 ft 463 kts 231°
2026-05-07 12:50 38.39166 -9.57929 24377 ft 456 kts 232°
2026-05-07 12:50 38.37127 -9.60970 25590 ft 449 kts 232°
2026-05-07 12:51 38.35094 -9.64000 26359 ft 452 kts 232°
2026-05-07 12:51 38.33045 -9.67061 26614 ft 466 kts 232°
2026-05-07 12:51 38.30888 -9.70291 26685 ft 480 kts 232°
2026-05-07 12:51 38.28731 -9.73517 27106 ft 478 kts 232°
2026-05-07 12:52 38.26575 -9.76731 27474 ft 477 kts 232°
2026-05-07 12:52 38.24418 -9.79939 27673 ft 477 kts 232°
2026-05-07 12:52 38.22265 -9.83138 27625 ft 476 kts 232°
2026-05-07 12:52 38.20111 -9.86337 27481 ft 476 kts 232°
2026-05-07 12:53 38.17960 -9.89526 27672 ft 474 kts 232°
2026-05-07 12:53 38.16540 -9.91630 27851 ft 473 kts 232°
2026-05-07 12:53 38.14399 -9.94796 28185 ft 471 kts 232°
2026-05-07 12:53 38.12270 -9.97942 28561 ft 470 kts 232°
2026-05-07 12:54 38.10140 -10.01084 28926 ft 468 kts 232°
2026-05-07 12:54 38.08018 -10.04211 29324 ft 466 kts 232°
2026-05-07 12:54 38.05906 -10.07321 29721 ft 465 kts 232°
2026-05-07 12:54 38.03799 -10.10420 30084 ft 463 kts 232°
2026-05-07 12:55 38.01703 -10.13501 30431 ft 461 kts 233°
2026-05-07 12:55 37.99608 -10.16578 30775 ft 459 kts 233°
2026-05-07 12:55 37.97526 -10.19631 31107 ft 457 kts 233°
2026-05-07 12:55 37.95452 -10.22669 31464 ft 454 kts 233°
2026-05-07 12:56 37.93391 -10.25685 31827 ft 452 kts 233°
2026-05-07 12:56 37.91338 -10.28684 32171 ft 450 kts 233°
2026-05-07 12:56 37.89290 -10.31671 32548 ft 448 kts 233°
2026-05-07 12:56 37.87253 -10.34641 32790 ft 445 kts 233°
2026-05-07 12:57 37.85237 -10.37576 32914 ft 439 kts 233°
2026-05-07 12:57 37.83244 -10.40474 32934 ft 435 kts 233°
2026-05-07 12:57 37.79232 -10.46315 32947 ft 448 kts 233°
2026-05-07 12:58 37.75142 -10.52268 32946 ft 448 kts 233°
2026-05-07 12:58 37.71046 -10.58206 32943 ft 448 kts 233°
2026-05-07 12:59 37.66931 -10.64083 32955 ft 447 kts 232°
2026-05-07 12:59 37.62735 -10.69866 32956 ft 447 kts 231°
2026-05-07 13:00 37.58516 -10.75611 32962 ft 447 kts 231°
2026-05-07 13:00 37.54307 -10.81367 32965 ft 447 kts 231°
2026-05-07 13:01 37.50093 -10.87122 32967 ft 447 kts 231°
2026-05-07 13:01 37.45859 -10.92856 32967 ft 447 kts 231°
2026-05-07 13:02 37.41628 -10.98571 32954 ft 446 kts 230°
2026-05-07 13:02 37.37430 -11.04230 32958 ft 446 kts 230°
2026-05-07 13:03 37.33170 -11.09959 32980 ft 445 kts 230°
2026-05-07 13:03 37.28965 -11.15604 32979 ft 445 kts 230°
2026-05-07 13:04 37.24729 -11.21279 32961 ft 445 kts 230°
2026-05-07 13:04 37.20488 -11.26951 32965 ft 445 kts 230°
2026-05-07 13:05 37.16249 -11.32610 32959 ft 445 kts 230°
2026-05-07 13:05 37.12018 -11.38247 32971 ft 444 kts 230°
2026-05-07 13:06 37.07786 -11.43874 32974 ft 443 kts 230°
2026-05-07 13:06 37.03554 -11.49490 32974 ft 443 kts 230°
2026-05-07 13:07 36.99315 -11.55105 32975 ft 444 kts 230°
2026-05-07 13:07 36.95077 -11.60710 32927 ft 444 kts 230°
2026-05-07 13:08 36.92950 -11.63520 32781 ft 445 kts 230°
2026-05-07 13:08 36.90823 -11.66327 32618 ft 446 kts 230°
2026-05-07 13:08 36.88686 -11.69146 32442 ft 447 kts 230°
2026-05-07 13:08 36.86544 -11.71972 32294 ft 449 kts 230°
2026-05-07 13:09 36.84395 -11.74804 32139 ft 450 kts 230°
2026-05-07 13:09 36.82241 -11.77639 31990 ft 451 kts 229°
2026-05-07 13:09 36.80080 -11.80478 31824 ft 451 kts 229°
2026-05-07 13:09 36.77916 -11.83318 31679 ft 453 kts 229°
2026-05-07 13:10 36.75744 -11.86166 31530 ft 453 kts 229°
2026-05-07 13:10 36.73565 -11.89021 31376 ft 454 kts 229°
2026-05-07 13:10 36.71384 -11.91876 31255 ft 455 kts 229°
2026-05-07 13:10 36.69199 -11.94734 31090 ft 456 kts 229°
2026-05-07 13:11 36.64819 -12.00455 31003 ft 456 kts 229°
2026-05-07 13:11 36.60434 -12.06173 30982 ft 455 kts 229°
2026-05-07 13:12 36.56069 -12.11853 30982 ft 454 kts 229°
2026-05-07 13:12 36.51699 -12.17526 30984 ft 454 kts 229°
2026-05-07 13:13 36.47350 -12.23160 30978 ft 454 kts 229°
2026-05-07 13:13 36.42975 -12.28818 30985 ft 454 kts 229°
2026-05-07 13:14 36.38593 -12.34474 30991 ft 454 kts 228°
2026-05-07 13:14 36.34211 -12.40123 30960 ft 455 kts 228°
2026-05-07 13:15 36.29832 -12.45759 30991 ft 453 kts 228°
2026-05-07 13:15 36.25454 -12.51381 30991 ft 453 kts 228°
2026-05-07 13:16 36.21070 -12.56998 30991 ft 453 kts 227°
2026-05-07 13:16 36.16684 -12.62609 30993 ft 453 kts 227°
2026-05-07 13:17 36.12296 -12.68213 30988 ft 453 kts 227°
2026-05-07 13:17 36.07902 -12.73812 30993 ft 453 kts 227°
2026-05-07 13:18 36.03508 -12.79402 30989 ft 453 kts 227°
2026-05-07 13:18 35.99119 -12.84976 30995 ft 453 kts 227°
2026-05-07 13:19 35.94725 -12.90546 30996 ft 453 kts 227°
2026-05-07 13:19 35.90331 -12.96105 30992 ft 453 kts 227°
2026-05-07 13:20 35.85933 -13.01661 30995 ft 453 kts 227°
2026-05-07 13:20 35.81529 -13.07213 30996 ft 453 kts 227°
2026-05-07 13:21 35.77129 -13.12754 30975 ft 452 kts 227°
2026-05-07 13:21 35.72736 -13.18279 30993 ft 451 kts 227°
2026-05-07 13:22 35.68347 -13.23790 30999 ft 451 kts 227°
2026-05-07 13:22 35.63949 -13.29294 30999 ft 451 kts 227°
2026-05-07 13:23 35.59552 -13.34791 30995 ft 451 kts 227°
2026-05-07 13:23 35.55147 -13.40283 30999 ft 451 kts 227°
2026-05-07 13:24 35.50742 -13.45769 31001 ft 451 kts 227°
2026-05-07 13:24 35.46347 -13.51247 31004 ft 449 kts 226°
2026-05-07 13:25 35.41994 -13.56656 31002 ft 448 kts 226°
2026-05-07 13:25 35.37613 -13.62081 30998 ft 448 kts 226°
2026-05-07 13:26 35.33224 -13.67504 31001 ft 448 kts 226°
2026-05-07 13:26 35.28837 -13.72917 31001 ft 448 kts 226°
2026-05-07 13:27 35.24447 -13.78332 31003 ft 448 kts 226°
2026-05-07 13:27 35.20055 -13.83736 31004 ft 448 kts 226°
2026-05-07 13:28 35.15672 -13.89121 31012 ft 445 kts 226°
2026-05-07 13:28 35.11300 -13.94495 31004 ft 445 kts 226°
2026-05-07 13:29 35.06933 -13.99856 31011 ft 445 kts 226°
2026-05-07 13:29 35.02552 -14.05206 31011 ft 445 kts 226°
2026-05-07 13:30 34.98178 -14.10552 31009 ft 445 kts 226°
2026-05-07 13:30 34.93805 -14.15896 31012 ft 445 kts 226°
2026-05-07 13:31 34.89434 -14.21241 30994 ft 444 kts 226°
2026-05-07 13:31 34.85076 -14.26545 31011 ft 443 kts 226°
2026-05-07 13:32 34.80713 -14.31827 31016 ft 442 kts 226°
2026-05-07 13:32 34.76384 -14.37078 31019 ft 442 kts 226°
2026-05-07 13:33 34.72029 -14.42362 31017 ft 443 kts 226°
2026-05-07 13:33 34.67662 -14.47641 31016 ft 442 kts 226°
2026-05-07 13:34 34.61108 -14.55524 30989 ft 442 kts 226°
2026-05-07 13:35 34.56743 -14.60776 31016 ft 441 kts 225°
2026-05-07 13:35 34.52387 -14.66021 31017 ft 441 kts 225°
2026-05-07 13:36 34.48029 -14.71259 31017 ft 441 kts 225°
2026-05-07 13:36 34.43700 -14.76456 31014 ft 441 kts 225°
2026-05-07 13:37 34.39304 -14.81710 31018 ft 441 kts 225°
2026-05-07 13:37 34.34940 -14.86928 31016 ft 441 kts 226°
2026-05-07 13:38 34.30664 -14.92178 31010 ft 441 kts 226°
2026-05-07 13:38 34.26376 -14.97474 31020 ft 440 kts 226°
2026-05-07 13:39 34.22085 -15.02732 31017 ft 440 kts 226°
2026-05-07 13:39 34.17770 -15.07977 31015 ft 440 kts 226°
2026-05-07 13:40 34.13448 -15.13191 31021 ft 440 kts 225°
2026-05-07 13:40 34.09107 -15.18394 30958 ft 439 kts 225°
2026-05-07 13:40 34.06950 -15.20969 30476 ft 431 kts 225°
2026-05-07 13:41 34.04807 -15.23520 29980 ft 441 kts 225°
2026-05-07 13:41 34.02603 -15.26140 29353 ft 447 kts 225°
2026-05-07 13:41 34.01104 -15.27918 28947 ft 449 kts 225°
2026-05-07 13:41 33.98902 -15.30527 28380 ft 451 kts 225°
2026-05-07 13:42 33.96659 -15.33181 27810 ft 452 kts 225°
2026-05-07 13:42 33.94415 -15.35833 27263 ft 452 kts 225°
2026-05-07 13:42 33.92168 -15.38484 26721 ft 450 kts 225°
2026-05-07 13:42 33.89945 -15.41103 26206 ft 445 kts 225°
2026-05-07 13:43 33.87738 -15.43700 25686 ft 442 kts 225°
2026-05-07 13:43 33.85545 -15.46279 25197 ft 439 kts 225°
2026-05-07 13:43 33.83366 -15.48839 24701 ft 437 kts 225°
2026-05-07 13:43 33.81200 -15.51381 24228 ft 435 kts 225°
2026-05-07 13:44 33.79041 -15.53913 23751 ft 433 kts 225°
2026-05-07 13:44 33.76890 -15.56435 23234 ft 431 kts 225°
2026-05-07 13:44 33.74751 -15.58939 22674 ft 428 kts 225°
2026-05-07 13:44 33.72626 -15.61424 22121 ft 425 kts 226°
2026-05-07 13:45 33.70513 -15.63894 21607 ft 422 kts 226°
2026-05-07 13:45 33.68422 -15.66339 21123 ft 418 kts 226°
2026-05-07 13:45 33.66344 -15.68766 20627 ft 414 kts 226°
2026-05-07 13:45 33.64290 -15.71164 20155 ft 411 kts 226°
2026-05-07 13:46 33.62243 -15.73551 19686 ft 408 kts 226°
2026-05-07 13:46 33.60213 -15.75919 19218 ft 406 kts 226°
2026-05-07 13:46 33.58195 -15.78269 18781 ft 403 kts 226°
2026-05-07 13:46 33.56190 -15.80602 18340 ft 403 kts 226°
2026-05-07 13:47 33.54170 -15.82954 17823 ft 404 kts 226°
2026-05-07 13:47 33.52157 -15.85295 17319 ft 402 kts 226°
2026-05-07 13:47 33.50156 -15.87619 16832 ft 399 kts 226°
2026-05-07 13:47 33.48172 -15.89919 16335 ft 396 kts 226°
2026-05-07 13:48 33.46205 -15.92198 15880 ft 392 kts 226°
2026-05-07 13:48 33.44251 -15.94457 15422 ft 389 kts 226°
2026-05-07 13:48 33.42314 -15.96697 14949 ft 386 kts 225°
2026-05-07 13:48 33.40387 -15.98924 14506 ft 385 kts 225°
2026-05-07 13:49 33.38464 -16.01144 14086 ft 383 kts 226°
2026-05-07 13:49 33.36554 -16.03349 13628 ft 379 kts 226°
2026-05-07 13:49 33.34665 -16.05532 13152 ft 377 kts 226°
2026-05-07 13:49 33.32781 -16.07709 12675 ft 377 kts 226°
2026-05-07 13:50 33.30896 -16.09890 12212 ft 377 kts 226°
2026-05-07 13:50 33.29011 -16.12070 11743 ft 377 kts 226°
2026-05-07 13:50 33.27122 -16.14253 11297 ft 378 kts 226°
2026-05-07 13:50 33.25236 -16.16432 10847 ft 378 kts 226°
2026-05-07 13:51 33.23341 -16.18618 10407 ft 379 kts 226°
2026-05-07 13:51 33.21443 -16.20806 9977 ft 379 kts 226°
2026-05-07 13:51 33.19542 -16.22997 9491 ft 380 kts 226°
2026-05-07 13:51 33.17644 -16.25183 9015 ft 379 kts 226°
2026-05-07 13:52 33.15747 -16.27369 8539 ft 378 kts 226°
2026-05-07 13:52 33.13860 -16.29544 8083 ft 377 kts 226°
2026-05-07 13:52 33.11979 -16.31707 7623 ft 376 kts 226°
2026-05-07 13:52 33.10095 -16.33863 7179 ft 375 kts 226°
2026-05-07 13:53 33.08306 -16.36046 6738 ft 372 kts 232°
2026-05-07 13:53 33.06889 -16.38597 6273 ft 368 kts 245°
2026-05-07 13:53 33.06020 -16.41442 5944 ft 364 kts 257°
2026-05-07 13:53 33.05515 -16.44397 5733 ft 364 kts 260°
2026-05-07 13:54 33.05004 -16.47352 5480 ft 364 kts 255°
2026-05-07 13:54 33.04053 -16.50144 5237 ft 365 kts 241°
2026-05-07 13:54 33.02539 -16.52563 4999 ft 365 kts 227°
2026-05-07 13:54 33.00629 -16.54560 4746 ft 366 kts 218°
2026-05-07 13:55 32.98497 -16.56216 4375 ft 366 kts 211°
2026-05-07 13:55 32.96261 -16.57650 3867 ft 364 kts 208°
2026-05-07 13:55 32.94004 -16.58967 3445 ft 359 kts 207°
2026-05-07 13:55 32.91763 -16.60254 3199 ft 357 kts 207°
2026-05-07 13:56 32.89589 -16.61533 3049 ft 333 kts 207°
2026-05-07 13:56 32.87619 -16.62725 2998 ft 303 kts 208°
2026-05-07 13:56 32.85821 -16.63824 2998 ft 280 kts 208°
2026-05-07 13:56 32.84151 -16.64844 2994 ft 261 kts 208°
2026-05-07 13:57 32.82603 -16.65785 3063 ft 236 kts 208°
2026-05-07 13:57 32.81187 -16.66642 2821 ft 223 kts 208°
2026-05-07 13:57 32.79838 -16.67458 2605 ft 213 kts 207°
2026-05-07 13:57 32.78540 -16.68241 2365 ft 207 kts 207°
2026-05-07 13:58 32.77284 -16.68999 2191 ft 197 kts 207°
2026-05-07 13:58 32.76098 -16.69712 2167 ft 183 kts 207°
2026-05-07 13:58 32.74981 -16.70385 1999 ft 179 kts 208°
2026-05-07 13:58 32.73868 -16.71059 1794 ft 180 kts 208°
2026-05-07 13:59 32.72764 -16.71728 1641 ft 178 kts 207°
2026-05-07 13:59 32.71661 -16.72396 1526 ft 178 kts 208°
2026-05-07 13:59 32.70558 -16.73065 1380 ft 177 kts 208°
2026-05-07 13:59 32.69460 -16.73730 1272 ft 177 kts 209°
2026-05-07 14:00 32.68363 -16.74396 1209 ft 177 kts 208°
2026-05-07 14:00 32.67297 -16.75041 1261 ft 165 kts 208°
2026-05-07 14:00 32.66278 -16.75657 1288 ft 164 kts 208°
2026-05-07 14:00 32.65260 -16.76273 1278 ft 164 kts 208°
2026-05-07 14:01 32.64285 -16.76876 1230 ft 151 kts 210°
2026-05-07 14:01 32.63611 -16.77803 1275 ft 155 kts 248°
2026-05-07 14:01 32.63698 -16.79096 1221 ft 163 kts 292°
2026-05-07 14:01 32.64475 -16.80017 1110 ft 160 kts 324°
2026-05-07 14:02 32.65500 -16.80436 897 ft 152 kts 352°
2026-05-07 14:02 32.66548 -16.80379 757 ft 156 kts
2026-05-07 14:02 32.67533 -16.79967 645 ft 149 kts 31°
2026-05-07 14:02 32.68305 -16.79183 395 ft 144 kts 44°
2026-05-07 14:03 32.69002 -16.78376 205 ft 134 kts 46°
2026-05-07 14:03 32.69593 -16.77674 181 ft 98 kts 45°
2026-05-07 14:03 32.69954 -16.77219 181 ft 39 kts 75°
2026-05-07 14:03 32.69895 -16.77154 181 ft 13 kts 195°
2026-05-07 14:04 32.69814 -16.77218 181 ft 16 kts 218°
2026-05-07 14:04 32.69781 -16.77251 181 ft 17 kts 223°